This demonstration page uses our WeatherBlox Daily Observations layout. Learn more.

Left ArrowRight Arrow

38.83388, -104.82136

Hourly Observations for January 28, 2022

Temp ( °F °C ) Dew Point ( °F °C ) Humidity (%) Winds ( mph kmh ) Pressure ( in mb ) Visibility ( mi km ) Precip ( " mm )
12:58 am 00:58 Clear 21 -5.9 1 -17.1 41 41 WSW 8 13 30.23 1024 10 16 0.00 0.00
1:58 am 01:58 Clear 23 -5.2 0 -18 36 36 Calm 30.21 1023 10 16 0.00 0.00
2:58 am 02:58 Clear 22 -5.7 -1 -18.1 37 37 Calm 30.23 1024 10 16 0.00 0.00
3:58 am 03:58 Clear 24 -4.5 -6 -21.1 26 26 S 3 6 30.21 1023 10 16 0.00 0.00
4:58 am 04:58 Clear 27 -3 -6 -21.3 23 23 ESE 7 11 30.21 1023 10 16 0.00 0.00
5:58 am 05:58 Clear 25 -4.1 1 -17.3 35 35 Calm 30.22 1024 10 16 0.00 0.00
6:58 am 06:58 Clear 30 -0.9 -7 -21.7 19 19 WNW 10 17 30.23 1024 10 16 0.00 0.00
7:58 am 07:58 Sunny 32 -0.2 -5 -20.5 20 20 Calm 30.26 1025 10 16 0.00 0.00
8:58 am 08:58 Sunny 35 1.4 -3 -19.2 20 20 Calm 30.27 1025 10 16 0.00 0.00
9:58 am 09:58 Sunny 37 2.8 4 -15.8 24 24 NE 3 6 30.27 1025 10 16 0.00 0.00
10:58 am 10:58 Sunny 39 3.9 10 -12.1 30 30 E 6 9 30.25 1025 10 16 0.00 0.00
11:58 am 11:58 Sunny 41 5 10 -12 28 28 ENE 7 11 30.24 1024 10 16 0.00 0.00
12:58 pm 12:58 Sunny 40 4.5 7 -13.9 25 25 NW 5 7 30.18 1022 10 16 0.00 0.00
1:58 pm 13:58 Sunny 42 5.6 6 -14.5 22 22 Calm 30.14 1021 10 16 0.00 0.00
2:58 pm 14:58 Sunny 41 5.2 5 -14.8 22 22 E 8 13 30.14 1021 10 16 0.00 0.00
3:58 pm 15:58 Sunny 38 3.5 6 -14.7 25 25 SE 12 19 30.12 1020 10 16 0.00 0.00
4:58 pm 16:58 Sunny 37 2.8 5 -14.8 26 26 SE 12 19 30.12 1020 10 16 0.00 0.00
5:58 pm 17:58 Clear 34 1.1 7 -13.8 32 32 Calm 30.15 1021 10 16 0.00 0.00
6:58 pm 18:58 Clear 32 -0.1 8 -13.1 37 37 WSW 6 9 30.11 1020 10 16 0.00 0.00
7:58 pm 19:58 Clear 33 0.6 6 -14.2 32 32 W 5 7 30.10 1019 10 16 0.00 0.00
8:58 pm 20:58 Clear 34 1.1 5 -15 29 29 SW 5 7 30.06 1018 10 16 0.00 0.00
9:58 pm 21:58 Clear 35 1.9 2 -16.6 24 24 SW 7 11 30.01 1016 10 16 0.00 0.00

Powered by AerisWeather